When you browse on this site, cookies collect data to enhance your experience and personalize the content and advertising you see.
Visit our Privacy Policy to learn more. By continuing to use the site, you agree to this use of cookies and data.
  • In United Kingdom
  • List of Countries
  • For 7 days
  • Water Temperature
  • Weather Map
  • Weather Widgets
  • user-avatar
    Login

    Hourly Weather Fot

    Today, 23 October, Wednesday

    Time Temperature Precipitation Wind Pressure Humidity
    00:00 +18°C° 0 mm 1 mps 752 mmHg 72%
    01:00 +18°C° 0 mm 1 mps 752 mmHg 73%
    02:00 +16°C° 0 mm 1 mps 752 mmHg 74%
    03:00 +16°C° 0 mm 1 mps 751 mmHg 75%
    04:00 +16°C° 0 mm 1 mps 751 mmHg 76%
    05:00 +16°C° 0 mm 1 mps 751 mmHg 76%
    06:00 +15°C° 0 mm 1 mps 751 mmHg 76%
    07:00 +15°C° 0 mm 1 mps 751 mmHg 77%
    08:00 +17°C° 0 mm 2 mps 751 mmHg 69%
    09:00 +19°C° 0 mm 2 mps 751 mmHg 61%
    10:00 +21°C° 0 mm 2 mps 751 mmHg 53%
    11:00 +23°C° 0 mm 2 mps 751 mmHg 48%
    12:00 +25°C° 0 mm 3 mps 750 mmHg 43%
    13:00 +26°C° 0 mm 3 mps 750 mmHg 39%
    14:00 +25°C° 0 mm 3 mps 750 mmHg 40%
    15:00 +24°C° 0 mm 2 mps 749 mmHg 41%
    16:00 +24°C° 0 mm 2 mps 749 mmHg 42%
    17:00 +21°C° 0 mm 2 mps 749 mmHg 46%
    18:00 +20°C° 0 mm 2 mps 749 mmHg 50%
    19:00 +19°C° 0 mm 2 mps 749 mmHg 53%
    20:00 +18°C° 0 mm 2 mps 749 mmHg 56%
    21:00 +18°C° 0 mm 2 mps 749 mmHg 59%
    22:00 +17°C° 0 mm 2 mps 749 mmHg 62%
    23:00 +17°C° 0 mm 2 mps 748 mmHg 65%

    Tomorrow, 24 October, Thursday

    Time Temperature Precipitation Wind Pressure Humidity
    00:00 +16°C° 0 mm 2 mps 748 mmHg 67%
    01:00 +16°C° 0 mm 2 mps 748 mmHg 70%
    02:00 +15°C° 0 mm 2 mps 748 mmHg 71%
    03:00 +15°C° 0 mm 2 mps 748 mmHg 73%
    04:00 +14°C° 0 mm 2 mps 747 mmHg 74%
    05:00 +14°C° 0 mm 2 mps 747 mmHg 73%
    06:00 +14°C° 0 mm 2 mps 747 mmHg 72%
    07:00 +14°C° 0 mm 2 mps 747 mmHg 71%
    08:00 +16°C° 0 mm 2 mps 747 mmHg 64%
    09:00 +18°C° 0 mm 2 mps 747 mmHg 56%
    10:00 +20°C° 0 mm 3 mps 747 mmHg 48%
    11:00 +21°C° 0 mm 3 mps 747 mmHg 44%
    12:00 +22°C° 0 mm 3 mps 747 mmHg 40%
    13:00 +24°C° 0 mm 3 mps 746 mmHg 35%
    14:00 +24°C° 0 mm 3 mps 746 mmHg 37%
    15:00 +22°C° 0 mm 3 mps 746 mmHg 38%
    16:00 +23°C° 0 mm 2 mps 745 mmHg 40%
    17:00 +20°C° 0 mm 2 mps 746 mmHg 43%
    18:00 +19°C° 0 mm 2 mps 746 mmHg 45%
    19:00 +19°C° 0 mm 1 mps 746 mmHg 48%
    20:00 +18°C° 0 mm 1 mps 746 mmHg 49%
    21:00 +18°C° 0 mm 1 mps 746 mmHg 50%
    22:00 +16°C° 0 mm 1 mps 747 mmHg 51%
    23:00 +16°C° 0 mm 1 mps 747 mmHg 52%

    Day after tomorrow, 25 October, Friday

    Time Temperature Precipitation Wind Pressure Humidity
    00:00 +15°C° 0 mm 1 mps 747 mmHg 53%
    01:00 +15°C° 0 mm 1 mps 747 mmHg 54%
    02:00 +15°C° 0 mm 1 mps 747 mmHg 55%
    03:00 +14°C° 0 mm 1 mps 747 mmHg 56%
    04:00 +14°C° 0 mm 1 mps 747 mmHg 57%
    05:00 +13°C° 0 mm 0 mps 748 mmHg 57%
    06:00 +13°C° 0 mm 0 mps 748 mmHg 58%
    07:00 +13°C° 0 mm 0 mps 749 mmHg 58%
    08:00 +16°C° 0 mm 1 mps 749 mmHg 54%
    09:00 +19°C° 0 mm 1 mps 749 mmHg 49%
    10:00 +21°C° 0 mm 1 mps 750 mmHg 45%
    11:00 +21°C° 0 mm 1 mps 750 mmHg 44%
    12:00 +21°C° 0 mm 2 mps 750 mmHg 43%
    13:00 +23°C° 0 mm 2 mps 750 mmHg 42%
    14:00 +22°C° 0 mm 1 mps 750 mmHg 45%
    15:00 +22°C° 0 mm 1 mps 749 mmHg 48%
    16:00 +21°C° 0 mm 1 mps 749 mmHg 51%
    17:00 +20°C° 0 mm 1 mps 750 mmHg 55%
    18:00 +19°C° 0 mm 1 mps 750 mmHg 60%
    19:00 +16°C° 0 mm 1 mps 750 mmHg 65%
    20:00 +16°C° 0 mm 1 mps 750 mmHg 67%
    21:00 +16°C° 0 mm 1 mps 750 mmHg 69%
    22:00 +14°C° 0 mm 0 mps 750 mmHg 71%
    23:00 +14°C° 0 mm 0 mps 750 mmHg 71%

    26 October, Saturday

    Time Temperature Precipitation Wind Pressure Humidity
    00:00 +13°C° 0 mm 0 mps 750 mmHg 72%
    01:00 +13°C° 0 mm 0 mps 750 mmHg 73%
    02:00 +13°C° 0 mm 0 mps 750 mmHg 73%
    03:00 +12°C° 0 mm 0 mps 750 mmHg 74%
    04:00 +12°C° 0 mm 0 mps 750 mmHg 74%
    05:00 +12°C° 0 mm 0 mps 750 mmHg 74%
    06:00 +12°C° 0 mm 0 mps 750 mmHg 74%
    07:00 +12°C° 0 mm 0 mps 750 mmHg 74%
    08:00 +14°C° 0 mm 0 mps 750 mmHg 68%
    09:00 +15°C° 0 mm 0 mps 751 mmHg 62%
    10:00 +19°C° 0 mm 1 mps 751 mmHg 56%
    11:00 +21°C° 0 mm 1 mps 751 mmHg 52%
    12:00 +22°C° 0 mm 1 mps 750 mmHg 49%
    13:00 +23°C° 0 mm 2 mps 750 mmHg 46%
    14:00 +21°C° 0 mm 2 mps 750 mmHg 48%
    15:00 +22°C° 0 mm 1 mps 749 mmHg 50%
    16:00 +21°C° 0 mm 1 mps 749 mmHg 52%
    17:00 +20°C° 0 mm 1 mps 749 mmHg 56%
    18:00 +19°C° 0 mm 1 mps 749 mmHg 59%
    19:00 +18°C° 0 mm 1 mps 749 mmHg 63%
    20:00 +16°C° 0 mm 1 mps 749 mmHg 64%
    21:00 +16°C° 0 mm 1 mps 749 mmHg 66%
    22:00 +14°C° 0 mm 0 mps 749 mmHg 67%
    23:00 +14°C° 0 mm 0 mps 749 mmHg 69%

    27 October, Sunday

    Time Temperature Precipitation Wind Pressure Humidity
    00:00 +15°C° 0 mm 1 mps 749 mmHg 71%
    01:00 +14°C° 0 mm 1 mps 749 mmHg 73%
    02:00 +14°C° 0 mm 1 mps 749 mmHg 75%
    03:00 +14°C° 0 mm 1 mps 748 mmHg 77%
    04:00 +13°C° 0 mm 1 mps 748 mmHg 78%
    05:00 +13°C° 0 mm 1 mps 748 mmHg 79%
    06:00 +13°C° 0 mm 1 mps 748 mmHg 80%
    07:00 +13°C° 0 mm 1 mps 748 mmHg 81%
    08:00 +15°C° 0 mm 1 mps 748 mmHg 73%
    09:00 +17°C° 0 mm 2 mps 749 mmHg 66%
    10:00 +19°C° 0 mm 2 mps 749 mmHg 59%
    11:00 +19°C° 0 mm 3 mps 749 mmHg 56%
    12:00 +20°C° 0 mm 4 mps 749 mmHg 53%
    13:00 +21°C° 0 mm 5 mps 749 mmHg 49%
    14:00 +20°C° 0 mm 5 mps 749 mmHg 51%
    15:00 +19°C° 0 mm 5 mps 749 mmHg 53%
    16:00 +18°C° 0 mm 4 mps 749 mmHg 56%
    17:00 +18°C° 0 mm 4 mps 749 mmHg 57%
    18:00 +17°C° 0 mm 4 mps 749 mmHg 59%
    19:00 +16°C° 0 mm 3 mps 750 mmHg 61%
    20:00 +15°C° 0 mm 4 mps 750 mmHg 56%
    21:00 +14°C° 0 mm 4 mps 750 mmHg 51%
    22:00 +13°C° 0 mm 4 mps 751 mmHg 46%
    23:00 +13°C° 0 mm 4 mps 751 mmHg 45%

    28 October, Monday

    Time Temperature Precipitation Wind Pressure Humidity
    00:00 +12°C° 0 mm 3 mps 751 mmHg 44%
    01:00 +12°C° 0 mm 3 mps 751 mmHg 43%
    02:00 +12°C° 0 mm 2 mps 751 mmHg 46%
    03:00 +12°C° 0 mm 2 mps 750 mmHg 49%
    04:00 +12°C° 0 mm 2 mps 750 mmHg 53%
    05:00 +12°C° 0 mm 1 mps 750 mmHg 53%
    06:00 +12°C° 0 mm 1 mps 750 mmHg 53%
    07:00 +11°C° 0 mm 1 mps 750 mmHg 53%
    08:00 +11°C° 0.1 mm 1 mps 750 mmHg 54%
    09:00 +11°C° 0.1 mm 1 mps 750 mmHg 55%
    10:00 +11°C° 0.1 mm 1 mps 750 mmHg 57%
    11:00 +11°C° 0.2 mm 1 mps 750 mmHg 60%
    12:00 +10°C° 0.2 mm 1 mps 750 mmHg 64%
    13:00 +10°C° 0.2 mm 1 mps 750 mmHg 68%
    14:00 +10°C° 0.1 mm 1 mps 750 mmHg 69%
    15:00 +10°C° 0.1 mm 1 mps 749 mmHg 70%
    16:00 +10°C° 0.1 mm 1 mps 749 mmHg 71%
    17:00 +10°C° 0 mm 1 mps 749 mmHg 71%
    18:00 +10°C° 0 mm 1 mps 749 mmHg 70%
    19:00 +9°C° 0 mm 1 mps 749 mmHg 70%
    20:00 +9°C° 0 mm 1 mps 749 mmHg 69%
    21:00 +10°C° 0 mm 1 mps 749 mmHg 69%
    22:00 +10°C° 0 mm 1 mps 749 mmHg 68%
    23:00 +10°C° 0 mm 1 mps 749 mmHg 67%

    29 October, Tuesday

    Time Temperature Precipitation Wind Pressure Humidity
    00:00 +10°C° 0 mm 1 mps 749 mmHg 66%
    01:00 +10°C° 0 mm 1 mps 749 mmHg 66%
    02:00 +10°C° 0 mm 1 mps 749 mmHg 65%
    03:00 +10°C° 0 mm 1 mps 749 mmHg 65%
    04:00 +10°C° 0 mm 1 mps 749 mmHg 65%
    05:00 +10°C° 0 mm 1 mps 749 mmHg 64%
    06:00 +10°C° 0 mm 1 mps 749 mmHg 63%
    07:00 +10°C° 0 mm 1 mps 749 mmHg 63%
    08:00 +10°C° 0 mm 1 mps 749 mmHg 61%
    09:00 +9°C° 0 mm 2 mps 749 mmHg 59%
    10:00 +9°C° 0 mm 2 mps 750 mmHg 57%
    11:00 +10°C° 0 mm 2 mps 750 mmHg 53%
    12:00 +12°C° 0 mm 2 mps 750 mmHg 50%
    13:00 +12°C° 0 mm 2 mps 750 mmHg 46%
    14:00 +12°C° 0 mm 2 mps 750 mmHg 46%
    15:00 +12°C° 0 mm 2 mps 750 mmHg 46%
    16:00 +10°C° 0 mm 3 mps 750 mmHg 45%
    17:00 +10°C° 0 mm 3 mps 750 mmHg 46%
    18:00 +9°C° 0 mm 3 mps 751 mmHg 46%
    19:00 +8°C° 0 mm 4 mps 751 mmHg 47%
    20:00 +7°C° 0 mm 4 mps 752 mmHg 49%
    21:00 +7°C° 0 mm 4 mps 752 mmHg 51%
    22:00 +7°C° 0 mm 3 mps 753 mmHg 53%
    23:00 +5°C° 0 mm 3 mps 753 mmHg 59%
    Show more